Location: Quedlinburg
(51.7921°N, 11.1414°E)
Time: 08:04:24
(UTC+02:00)

RS-44 - Pass Details

Date: 16 March 2026
Orbit: 1175 x 1510 km, 82.5° (Epoch: 13 April)

Event Time Altitude Azimuth Distance (km) Brightness Sun altitude
Rises 04:32:24 0° 344° (NNW) 4,396 ? -18.3°
Reaches altitude 10° 04:35:43 10° 332° (NNW) 3,470 ? -17.8°
Maximum altitude 04:42:00 25° 282° (WNW) 2,591 ? -16.9°
Enters shadow 04:44:19 22° 260° (W) 2,758 ? -16.6°
